Location: Arbon
(43.0005°N, 0.7472°E)
Time: 21:53:01
(UTC+00:00)

Explorer 7 - Pass Details

Date: 02 December 2020
Orbit: 484 x 678 km, 50.3° (Epoch: 25 January)

Event Time Altitude Azimuth Distance (km) Brightness Sun altitude
Rises 03:07:30 0° 281° (WNW) 2,904 - -43.6°
Reaches altitude 10° 03:10:05 10° 292° (WNW) 1,964 - -43.1°
Maximum altitude 03:14:06 31° 355° (N) 1,037 - -42.4°
Drops below altitude 10° 03:17:54 10° 59° (ENE) 1,852 - -41.7°
Exits shadow 03:19:07 - 66° (ENE) 2,283 10.7 -41.5°
Sets 03:20:17 0° 70° (ENE) 2,712 11.2 -41.3°
